THORAD DELTA 1 DEB, 8142

Orbit data source: Space-Track

THORAD DELTA 1 DEB, 8142 is space debris in SSO originally from a launch on Fri, 15 Nov 1974 UTC launched from the Air Force Western Test Range (AFWTR). Debris objects in space refer to the collection of defunct objects orbiting the Earth. Examples of debris include non-operational satellites, rocket bodies, and fragments generated from explosions, collisions, or faulty payload assembly.

Loading next visibility...
Identifier
8142, 1974-089L
Orbit
SSO
Country
Flag of USUS
Related business
Manufacturer
Unknown
Mission
Spacecraft
Bus & Motor
Unknown
Mass
Unknown
Launch date (UTC)
1974-11-15 (52 years ago)
Launch vehicle
Unknown
Launch site
Air Force Western Test Range (AFWTR)
Object type
Payload
Rocket body
Debris
Shape & HBR
Unknown shape, 0.4 m
Radar Cross Section
Medium (>0.1 m² and <1 m²)

Expand to show TLE details & history
Last TLE update: 16 hours ago

TLE from 16 hours ago
0 THORAD DELTA 1 DEB
1 08142U 74089L   26175.20383828  .00008374  00000-0  39185-1 0  9997
2 08142 101.2066  68.8642 0467396 301.8181 189.1699 12.46449977283339
Epoch: 2026-06-24T04:53Z
TLE epoch observation values (Epoch: 2026-06-24T04:53:31.627Z)
Latitude
48.62888°
Longitude
-83.94322°
Altitude
1,849.824 km
Speed
6.803 km/s
True Right ascension
17h 27m 12s
True Declination
48° 28' 51"
Sunlit
Object was in daylight at epoch
Visualization orbit readout
Latitude
Unknown
Longitude
Unknown
Altitude
Unknown
Speed
Unknown
Apparent Right ascension
Unknown
Apparent Declination
Unknown
Sunlit
N/A
Visualization observer readout
Local Sidereal Time
07:35:50
Azimuth
Unknown
Elevation
Unknown
Doppler factor
Unknown
Orbital elements
Apogee altitude
1,844.032 km
Perigee altitude
1,109.75 km
Semi-major axis
7,855.028 km
Eccentricity
0.04674
Inclination
101.2066°
RAAN
68.8642°
Arg. of periapsis
301.8181°
True anomaly
188.36303°
Mean anomaly
189.1699°
Eccentric anomaly
188.76196°
Mean motion
3.11761 °/min
Orbital period
115.47 mins
BSTAR
0.039185
Loading maneuver chart data...
Computing Atmospheric mass density...

Documentation

Showing up to 5 results
|